Regional Weather Roundup
Issued by NWS State College, PA

Home | Current Version | Previous Version | Text Only | Print | Product List | Glossary Off
Versions: 1 2 3 4 5 6 7 8 9 10 11 12 13 14 15 16 17 18 19 20 21 22 23 24 25 26 27 28 29 30 31 32 33 34 35 36 37 38 39 40 41 42 43 44 45 46 47 48 49 50

000
ASUS41 KCTP 212103
RWRCTP

REGIONAL WEATHER ROUNDUP
NATIONAL WEATHER SERVICE STATE COLLEGE PA
500 PM EDT SUN SEP 21 2014

Note: "fair" indicates few or no clouds below 12,000 feet with no
significant weather and/or obstructions to visibility.

* = STATION THAT DOES NOT REPORT PRECIPITATION /E.G. RAIN...SNOW...ETC/
    THUNDER OR FOG.

PAZ002>004-007>009-013>016-020>023-029>032-212200-
WESTERN PENNSYLVANIA

CITY           SKY/WX    TMP DP  RH WIND       PRES   REMARKS
ERIE           SUNNY     70  52  52 W18G26    29.67R
MEADVILLE      PTSUNNY   68  54  60 W15G24    29.69R
FRANKLIN*      CLOUDY    70  57  64 NW7       29.68R
NEW CASTLE     NOT AVBL
BEAVER COUNTY  SUNNY     77  43  29 W12G23    29.67S
BUTLER*        SUNNY     77  52  41 W16G24    29.67S
PITTSBURGH INT MOSUNNY   78  43  28 W26G33    29.66R
PITTSBURGH     MOSUNNY   73  60  63 SW12      29.66F
INDIANA*       MOSUNNY   75  63  64 W14G21    29.69S
LATROBE        PTSUNNY   66  63  88 SW10      29.69S
WASHINGTON CO* MOSUNNY   79  52  38 W21G30    29.69R
$$

PAZ004>006-010>012-017>019-024>028-033>037-041-042-045-046-049>053-212200-
CENTRAL PENNSYLVANIA

CITY           SKY/WX    TMP DP  RH WIND       PRES   REMARKS
BRADFORD       PTSUNNY   68  59  73 W10       29.66F
DUBOIS         MOSUNNY   67  63  87 SW9       29.65F
CLEARFIELD     PTSUNNY   73  60  63 NW16G24   29.65S
JOHNSTOWN      RAIN      64  56  75 W10G22    29.72R
ALTOONA        MOSUNNY   75  60  59 SW12      29.68F
STATE COLLEGE  MOSUNNY   77  61  57 SW14G20   29.64F
WILLIAMSPORT   SUNNY     78  63  59 VRB7      29.61F
SELINSGROVE    MOSUNNY   80  64  58 SW5       29.63F
FT INDIANTOWN  PTSUNNY   81  63  53 S9        29.63F
CAPITAL CITY   MOSUNNY   82  62  50 SW7       29.62F
HARRISBURG     PTSUNNY   83  63  50 SW7       29.61F
YORK           PTSUNNY   82  61  48 VRB6      29.64F
$$

PAZ038>040-043-044-047-048-054-055-060>062-067>071-212200-
EASTERN PENNSYLVANIA

CITY           SKY/WX    TMP DP  RH WIND       PRES   REMARKS
SCRANTON       PTSUNNY   79  58  48 S10G16    29.63F
MOUNT POCONO   PTSUNNY   72  58  61 S8        29.70F
ALLENTOWN      MOSUNNY   80  56  43 VRB5      29.64F
QUAKERTOWN*    MOCLDY    81  57  44 S6        29.65F
READING        MOSUNNY   82  61  48 S9        29.63F
LANCASTER      MOSUNNY   82  60  47 SE9       29.63F
COATESVILLE    PTCLDY    77  63  61 SE3       29.67F
POTTSTOWN      PTSUNNY   79  58  48 VRB3      29.66F
BLUE BELL      PTSUNNY   81  63  54 S5        29.64F
DOYLESTOWN     CLOUDY    76  61  59 S5        29.64F
WILLOW GROVE   NOT AVBL
NORTH PHILA    CLOUDY    77  62  59 SE3       29.66F
PHILADELPHIA   CLOUDY    78  65  63 SE5       29.65F
$$



USA.gov is the U.S. government's official web portal to all federal, state and local government web resources and services.